[[{"header":{"parameterUnit":"m.s-1","parameterCategory":2,"la1":30.2991,"la2":30.254,"lo1":-89.0895,"lo2":-89.0444,"dy":0.0017,"dx":0.0017,"nx":28,"ny":28,"refTime":"2023-07-29T21:00:00:Z","depth":"0","parameterNumber":2,"parameterNumberName":"U-component_of_CURRENTS"},"data":[0,0,0,0,0,0,0,0,0,0,0,0,0,0,0,0,0,0,0,0,0,0,0,0,0,0,0,0,0,0,0,0,0,0,0,0,0,0,0,0,0,0,0,0,0,0,0,0,0,0,0,0,0,0,0,0,0,0,0.3657,0.3658,0,0.3692,0.3692,0.3693,0.3657,0.3655,0.3654,0.3653,0.3677,0.3678,0.368,0,0,0,0,0,0,0,0,0,0,0,0,0,0.3642,0.3642,0.3657,0.3658,0.3658,0.3692,0.3692,0.3693,0.3657,0.3655,0.3654,0.3653,0.3676,0.3678,0.368,0,0,0,0,0,0,0,0,0,0,0,0,0,0.3658,0.3642,0.3657,0.3646,0.3645,0.3692,0.3692,0.3693,0.3657,0.3655,0.3654,0.3652,0.3675,0.3678,0.368,0.3733,0,0,0.3689,0.369,0,0,0,0,0,0,0,0,0.3657,0.3658,0.3647,0.3647,0.3646,0.367,0.3696,0.3707,0.3658,0.3651,0.3653,0.3651,0.3676,0.3679,0.3686,0.3735,0.3736,0.3689,0.369,0.3692,0.3692,0,0,0,0,0,0,0,0.3656,0.3657,0.3669,0.3648,0.3647,0.3668,0.3667,0.3698,0.3671,0.3651,0.3649,0.3657,0.3675,0.3684,0.3687,0.3736,0.3689,0.3691,0.3693,0.3694,0.3854,0.3856,0,0,0,0,0,0,0.3653,0.3656,0.3668,0.367,0.365,0.367,0.3669,0.3663,0.3671,0.3671,0.3658,0.3655,0.368,0.3684,0.3687,0.3788,0.3692,0.3694,0.3696,0.3851,0.3854,0.3857,0,0,0,0,0,0,0.3653,0.3654,0.3666,0.3666,0.3669,0.3671,0.3665,0.3664,0.3667,0.3677,0.3676,0.3661,0.3679,0.3684,0.3722,0.3786,0.3695,0.3698,0.3848,0.3852,0.3856,0.3964,0,0,0,0,0,0,0.3652,0.3653,0.3658,0.3666,0.3669,0.3707,0.3667,0.3666,0.3676,0.3671,0.368,0.368,0.3678,0.3718,0.3725,0.3788,0.37,0.3845,0.385,0.3855,0.3957,0.3972,0.3984,0,0,0,0,0,0.3651,0.3667,0.3658,0.366,0.3672,0.3709,0.3714,0.3708,0.3678,0.3698,0.3697,0.3679,0.3755,0.3723,0.3729,0.3796,0.3842,0.3848,0.3854,0.3952,0.3969,0.3983,0,0,0,0,0,0,0.3668,0.3666,0.3655,0.3669,0.3693,0.3704,0.3728,0.3713,0.3728,0.3723,0.3709,0.3713,0.3784,0.3768,0.3733,0.3857,0.3798,0.3806,0.387,0.3886,0.3899,0.3919,0.3702,0,0,0,0,0,0.3674,0.3678,0.369,0.3704,0.3719,0.3721,0.3735,0.3733,0.3745,0.3748,0.3753,0.377,0.3819,0.3829,0.387,0.3924,0.3922,0.3972,0.3986,0.3997,0.4018,0.4073,0.4093,0.3877,0.3877,0.3877,0,0,0.3689,0.3685,0.3691,0.3708,0.3723,0.3768,0.3725,0.3758,0.3794,0.3752,0.3803,0.3826,0.3847,0.3924,0.3952,0.3911,0.4056,0.4004,0.4014,0.403,0.4081,0.4102,0.412,0.3881,0.388,0.388,0,0,0.3717,0.3716,0.373,0.3759,0.3786,0.3807,0.3816,0.3837,0.3845,0.3897,0.3893,0.3949,0.399,0.4036,0.4059,0.4167,0.4137,0.4173,0.4242,0.4295,0.4313,0.4329,0.4343,0.436,0.4163,0.4163,0.4163,0,0.3736,0.374,0.3748,0.3779,0.3808,0.3825,0.3865,0.3902,0.3932,0.3945,0.3927,0.4032,0.4057,0.4158,0.4206,0.4203,0.4202,0.4178,0.4313,0.4328,0.4343,0.4353,0.437,0.4169,0.4168,0.4168,0.4167,0,0.3768,0.3789,0.381,0.385,0.3897,0.3936,0.3989,0.4032,0.4042,0.4061,0.415,0.4196,0.4242,0.4281,0.4283,0.4407,0.4363,0.4335,0.427,0.4371,0.4375,0.4391,0.4177,0.4175,0.4173,0.4172,0,0,0.3745,0.3815,0.3815,0.3843,0.3928,0.3962,0.4057,0.4123,0.4161,0.4222,0.4273,0.4396,0.4394,0.4424,0.4442,0.4507,0.4622,0.4469,0.4468,0.4479,0.4711,0.4472,0.4465,0.4607,0.4611,0.4614,0.4668,0,0.3757,0.3818,0.3849,0.3929,0.3978,0.4038,0.4118,0.419,0.4241,0.4307,0.4377,0.4447,0.4453,0.4484,0.4558,0.4618,0.467,0.4609,0.4615,0.4615,0.4388,0.4478,0.4213,0.422,0.4682,0.4685,0.4687,0,0.375,0.38,0.3871,0.3958,0.3979,0.4035,0.4143,0.4215,0.4331,0.4368,0.4454,0.4492,0.4627,0.4603,0.475,0.4703,0.4723,0.4758,0.4759,0.4512,0.4405,0.4198,0.423,0.4149,0.471,0.4708,0.4706,0,0.3713,0.3795,0.3845,0.3882,0.4007,0.4038,0.4102,0.4221,0.429,0.4409,0.4469,0.4586,0.4662,0.4735,0.4805,0.4782,0.4938,0.4898,0.47,0.4682,0.4446,0.4398,0.4395,0.4994,0.4994,0.4994,0.4994,0,0.3698,0.3731,0.3825,0.3863,0.3934,0.4012,0.4097,0.4177,0.4301,0.4378,0.4486,0.4568,0.4705,0.4793,0.4833,0.4804,0.4949,0.4733,0.4691,0.447,0.4427,0.4331,0.4323,0.4996,0.4996,0.4995,0.4995,0,0.3651,0.3708,0.3791,0.3901,0.3926,0.3985,0.4106,0.4158,0.4283,0.4395,0.444,0.4596,0.4664,0.4758,0.4876,0.481,0.4674,0.4776,0.4483,0.4402,0.4047,0.4053,0.3882,0.3788,0.4538,0.4533,0.4528,0,0.3632,0.3668,0.3807,0.3853,0.3896,0.3981,0.4027,0.4152,0.4213,0.439,0.443,0.4539,0.454,0.4601,0.4539,0.4506,0.4481,0.4229,0.4128,0.3999,0.3981,0.3902,0.3835,0.3876,0.3866,0.3858,0.3852,0,0.3622,0.3673,0.3748,0.384,0.3893,0.3955,0.4021,0.4067,0.4192,0.4269,0.4309,0.4311,0.4301,0.4113,0.4066,0.403,0.3985,0.4056,0.4034,0.3545,0.3357,0.3252,0.3867,0.3782,0.3789,0.3794,0.3798,0.3801,0.3617,0.3667,0.3756,0.3819,0.3865,0.3871,0.385,0.3897,0.3944,0.3925,0.4073,0.3934,0.3803,0.3646,0.3599,0.3335,0.3454,0.3197,0.3245,0.3202,0.3003,0.3422,0.3207,0.321,0.3213,0.3216,0.3218,0,0.3602,0.3644,0.3711,0.376,0.3719,0.378,0.3783,0.369,0.3615,0.3615,0.3565,0.3329,0.3098,0.2997,0.2756,0.2596,0.254,0.2534,0.2436,0.2437,0.29,0.276,0.23,0.23,0.23,0.23,0.2301,0.2301,0.3613,0.3639,0.3655,0.3584,0.3572,0.3423,0.3373,0.3247,0.3184,0.293,0.2735,0.269,0.2657,0.2468,0.2235,0.2165,0.2102,0.1892,0.2045,0.2439,0.2508,0.2573,0.2442,0.1923,0.1923,0.1438,0.1435,0.1432]},{"header":{"parameterUnit":"m.s-1","parameterCategory":2,"la1":30.2991,"la2":30.254,"lo1":-89.0895,"lo2":-89.0444,"dy":0.0017,"dx":0.0017,"nx":28,"ny":28,"refTime":"2023-07-29T21:00:00:Z","depth":"0","parameterNumber":3,"parameterNumberName":"V-component_of_CURRENTS"},"data":[0,0,0,0,0,0,0,0,0,0,0,0,0,0,0,0,0,0,0,0,0,0,0,0,0,0,0,0,0,0,0,0,0,0,0,0,0,0,0,0,0,0,0,0,0,0,0,0,0,0,0,0,0,0,0,0,0,0,0.0278,0.0278,0,0.0264,0.0264,0.0264,0.0256,0.0256,0.0255,0.0255,0.0235,0.0235,0.0234,0,0,0,0,0,0,0,0,0,0,0,0,0,0.0298,0.0298,0.0278,0.0278,0.0277,0.0264,0.0264,0.0264,0.0256,0.0256,0.0255,0.0255,0.0235,0.0235,0.0234,0,0,0,0,0,0,0,0,0,0,0,0,0,0.0289,0.0298,0.0278,0.027,0.0269,0.0264,0.0264,0.0264,0.0256,0.0256,0.0255,0.0255,0.0235,0.0235,0.0234,0.024,0,0,0.0233,0.0233,0,0,0,0,0,0,0,0,0.029,0.0289,0.0271,0.027,0.0269,0.0259,0.0263,0.0255,0.0256,0.0264,0.0255,0.0255,0.0241,0.024,0.0242,0.0239,0.0238,0.0233,0.0233,0.0233,0.0232,0,0,0,0,0,0,0,0.0291,0.029,0.0275,0.0271,0.0269,0.0266,0.0265,0.0262,0.0257,0.0263,0.0262,0.0256,0.0241,0.0243,0.0242,0.0238,0.0233,0.0233,0.0232,0.0232,0.0256,0.0257,0,0,0,0,0,0,0.0287,0.029,0.0275,0.0274,0.0276,0.0266,0.0265,0.0265,0.0257,0.0254,0.0256,0.0256,0.0244,0.0242,0.0241,0.0269,0.0233,0.0232,0.0232,0.0255,0.0256,0.0257,0,0,0,0,0,0,0.0288,0.0287,0.0276,0.0279,0.0278,0.0266,0.0266,0.0265,0.0266,0.0251,0.0249,0.0258,0.0243,0.0241,0.0245,0.0267,0.0232,0.0232,0.0254,0.0255,0.0257,0.0311,0,0,0,0,0,0,0.0289,0.0287,0.029,0.0279,0.0277,0.0279,0.0266,0.0264,0.0262,0.0261,0.0253,0.025,0.0243,0.0245,0.0244,0.0266,0.0231,0.0253,0.0255,0.0256,0.0308,0.0314,0.0319,0,0,0,0,0,0.029,0.0298,0.0291,0.0289,0.0281,0.0279,0.0279,0.027,0.0262,0.0269,0.0263,0.0251,0.0255,0.0246,0.0244,0.0266,0.0252,0.0254,0.0256,0.0306,0.0313,0.0319,0,0,0,0,0,0,0.0306,0.0297,0.0289,0.0293,0.0287,0.0277,0.0284,0.0272,0.0274,0.0275,0.0259,0.0257,0.027,0.0259,0.0249,0.0278,0.0253,0.0255,0.0291,0.0298,0.0303,0.0345,0.0231,0,0,0,0,0,0.0311,0.0317,0.0303,0.0307,0.0307,0.0295,0.0294,0.0287,0.0283,0.0283,0.0274,0.0271,0.0278,0.0279,0.028,0.0293,0.0303,0.0306,0.0312,0.0317,0.035,0.0391,0.0404,0.0264,0.0264,0.0264,0,0,0.0318,0.0313,0.0316,0.0311,0.0309,0.0321,0.0295,0.0299,0.031,0.0281,0.0297,0.0289,0.0285,0.0304,0.0309,0.0297,0.0355,0.0319,0.0323,0.0355,0.0395,0.0409,0.0421,0.0265,0.0265,0.0265,0,0,0.0341,0.0333,0.035,0.0349,0.0345,0.0341,0.0342,0.0333,0.0334,0.034,0.0331,0.0344,0.0333,0.0352,0.0357,0.0394,0.0382,0.0381,0.0444,0.0483,0.0496,0.0507,0.0509,0.052,0.0384,0.0384,0.0384,0,0.0349,0.0369,0.0354,0.037,0.038,0.0353,0.0379,0.0375,0.0367,0.0387,0.0352,0.0386,0.0368,0.0426,0.0432,0.0411,0.0416,0.0417,0.0493,0.0504,0.0515,0.0514,0.0526,0.0387,0.0387,0.0386,0.0386,0,0.0387,0.0403,0.0415,0.0431,0.0439,0.0455,0.0448,0.0456,0.0446,0.0451,0.0492,0.0475,0.0509,0.0491,0.0468,0.054,0.0512,0.0494,0.048,0.0533,0.0527,0.0539,0.0391,0.039,0.0389,0.0388,0,0,0.0405,0.0437,0.0442,0.0472,0.0476,0.0494,0.0516,0.0549,0.0599,0.0573,0.0647,0.0634,0.0638,0.0645,0.0624,0.0644,0.0694,0.0602,0.0602,0.061,0.0759,0.0682,0.0686,0.0689,0.0692,0.0694,0.0714,0,0.0443,0.0497,0.05,0.056,0.0593,0.0589,0.0624,0.0648,0.0666,0.0726,0.072,0.0776,0.0693,0.0725,0.0731,0.0725,0.0731,0.0689,0.0702,0.0702,0.0635,0.0701,0.0661,0.0672,0.0725,0.0727,0.0728,0,0.048,0.0517,0.0582,0.0652,0.0669,0.0698,0.0779,0.0812,0.0875,0.0896,0.0943,0.0943,0.0987,0.0903,0.0915,0.0892,0.0835,0.0802,0.0802,0.0731,0.0649,0.0633,0.069,0.0594,0.0745,0.0744,0.0742,0,0.0518,0.0579,0.0641,0.0659,0.0722,0.0762,0.0805,0.087,0.0948,0.1029,0.1108,0.1124,0.1179,0.112,0.1034,0.099,0.1034,0.0966,0.0837,0.0829,0.0802,0.0787,0.0781,0.0975,0.0974,0.0974,0.0974,0,0.0564,0.0618,0.0666,0.0703,0.08,0.0824,0.095,0.0989,0.1103,0.1244,0.1217,0.1331,0.1242,0.1244,0.1117,0.1024,0.1101,0.0878,0.085,0.0812,0.0799,0.0716,0.065,0.0975,0.0975,0.0975,0.0975,0,0.0611,0.0632,0.0716,0.0791,0.0821,0.0898,0.1046,0.1154,0.1236,0.1425,0.1469,0.1528,0.1521,0.1396,0.1322,0.1159,0.0984,0.0991,0.093,0.0894,0.0643,0.0581,0.0548,0.0518,0.0856,0.0855,0.0853,0,0.0647,0.0687,0.0784,0.0848,0.089,0.1007,0.1103,0.1206,0.1343,0.1556,0.1667,0.1715,0.1758,0.159,0.132,0.1088,0.0975,0.0882,0.0783,0.0654,0.0565,0.052,0.0495,0.0756,0.0754,0.0753,0.0751,0,0.0723,0.0749,0.0826,0.0944,0.1044,0.1178,0.1327,0.1452,0.1616,0.1775,0.1971,0.2019,0.1846,0.1596,0.1253,0.1081,0.0797,0.0838,0.0753,0.0536,0.0447,0.0396,0.0689,0.0737,0.0739,0.074,0.0741,0.0741,0.0789,0.0853,0.0941,0.1059,0.118,0.1339,0.1468,0.1647,0.1863,0.2096,0.2144,0.2199,0.1827,0.1348,0.1131,0.0671,0.0689,0.0505,0.0453,0.0431,0.0369,0.0606,0.0586,0.0587,0.0587,0.0588,0.0588,0,0.086,0.0933,0.1054,0.1195,0.1339,0.1382,0.1616,0.1753,0.2002,0.2163,0.2298,0.2079,0.1652,0.1223,0.0599,0.0331,0.0264,0.0201,0.0152,0.0157,0.0415,0.0376,0.0254,0.0254,0.0254,0.0254,0.0254,0.0254,0.0904,0.1014,0.1069,0.1294,0.1408,0.1596,0.1727,0.1923,0.2067,0.2207,0.2177,0.2128,0.1757,0.0772,0.0164,0.005,-0.0058,-0.0146,-0.0163,0.0011,0.0036,0.006,0.0011,-0.0186,-0.0186,-0.039,-0.0392,-0.0394]}],[{"header":{"parameterUnit":"m.s-1","parameterCategory":2,"la1":30.2991,"la2":30.254,"lo1":-89.0895,"lo2":-89.0444,"dy":0.0017,"dx":0.0017,"nx":28,"ny":28,"refTime":"2023-07-29T21:00:00:Z","depth":"2","parameterNumber":2,"parameterNumberName":"U-component_of_CURRENTS"},"data":[0,0,0,0,0,0,0,0,0,0,0,0,0,0,0,0,0,0,0,0,0,0,0,0,0,0,0,0,0,0,0,0,0,0,0,0,0,0,0,0,0,0,0,0,0,0,0,0,0,0,0,0,0,0,0,0,0,0,0.2685,0.2686,0,0.2651,0.265,0.2649,0.2631,0.2632,0.2633,0.2634,0.2695,0.2696,0.2697,0,0,0,0,0,0,0,0,0,0,0,0,0,0.265,0.2651,0.2685,0.2686,0.2687,0.2652,0.265,0.2648,0.263,0.2632,0.2633,0.2634,0.2695,0.2696,0.2697,0,0,0,0,0,0,0,0,0,0,0,0,0,0.2635,0.2651,0.2685,0.2682,0.2682,0.2652,0.265,0.2648,0.263,0.2632,0.2633,0.2635,0.2695,0.2696,0.2697,0.2672,0,0,0.27,0.2701,0,0,0,0,0,0,0,0,0.2636,0.2635,0.2682,0.2682,0.2683,0.2657,0.2661,0.2665,0.263,0.2638,0.2634,0.2635,0.2698,0.2699,0.2671,0.2675,0.2678,0.27,0.2701,0.2701,0.2702,0,0,0,0,0,0,0,0.2637,0.2636,0.266,0.2683,0.2683,0.2654,0.2653,0.266,0.2652,0.2637,0.2639,0.2653,0.2697,0.267,0.2673,0.2679,0.27,0.2701,0.2702,0.2702,0.2768,0.277,0,0,0,0,0,0,0.2668,0.2637,0.2661,0.266,0.2676,0.2655,0.2653,0.2654,0.265,0.2654,0.2652,0.2652,0.2667,0.2672,0.2675,0.2788,0.2701,0.2702,0.2703,0.2767,0.2769,0.277,0,0,0,0,0,0,0.2667,0.2669,0.2663,0.2658,0.2657,0.2656,0.2656,0.2653,0.266,0.2662,0.2666,0.2667,0.2669,0.2674,0.2709,0.2786,0.2703,0.2704,0.2766,0.2768,0.2769,0.2925,0,0,0,0,0,0,0.2665,0.2668,0.2675,0.266,0.2659,0.2688,0.2656,0.2652,0.267,0.2671,0.2676,0.2681,0.267,0.2707,0.271,0.2786,0.2704,0.2764,0.2767,0.2769,0.2918,0.2931,0.2943,0,0,0,0,0,0.2664,0.2669,0.2674,0.2678,0.2668,0.2691,0.2687,0.2682,0.267,0.2688,0.2681,0.2683,0.2723,0.2709,0.2711,0.279,0.2763,0.2766,0.2769,0.2912,0.2929,0.2942,0,0,0,0,0,0,0.2663,0.2669,0.2674,0.2683,0.271,0.2693,0.2703,0.27,0.27,0.2706,0.2692,0.2697,0.2774,0.2735,0.272,0.2808,0.2746,0.2749,0.2854,0.2869,0.2882,0.288,0.2705,0,0,0,0,0,0.2667,0.2676,0.269,0.2709,0.2718,0.2714,0.272,0.2728,0.2731,0.2731,0.2729,0.2732,0.2775,0.2786,0.2808,0.2837,0.2828,0.2885,0.2898,0.2909,0.2906,0.2982,0.3003,0.2778,0.2778,0.2778,0,0,0.2675,0.2685,0.269,0.2712,0.2718,0.2741,0.2719,0.2752,0.2775,0.2741,0.2761,0.2792,0.2797,0.2855,0.2882,0.2836,0.2963,0.2912,0.2923,0.2913,0.2987,0.3009,0.3029,0.278,0.278,0.278,0,0,0.2696,0.2705,0.2714,0.2733,0.2771,0.2782,0.2805,0.2807,0.2813,0.2841,0.2848,0.2908,0.2918,0.2954,0.2971,0.3052,0.3046,0.3068,0.3116,0.3192,0.3212,0.3229,0.3234,0.3251,0.3052,0.3052,0.3052,0,0.2704,0.2714,0.2728,0.2744,0.2756,0.2808,0.2822,0.2848,0.2865,0.2881,0.2872,0.2954,0.2968,0.3069,0.3099,0.309,0.3102,0.3071,0.3214,0.3231,0.3246,0.3246,0.3263,0.306,0.3059,0.3058,0.3057,0,0.2736,0.2736,0.275,0.2785,0.2808,0.2841,0.2882,0.2927,0.2948,0.2966,0.3065,0.3092,0.314,0.3174,0.3161,0.329,0.3254,0.3248,0.3188,0.3279,0.3272,0.3286,0.3071,0.3068,0.3066,0.3064,0,0,0.2736,0.2762,0.2758,0.2768,0.2822,0.2848,0.2916,0.2981,0.3037,0.3091,0.3154,0.325,0.3284,0.3303,0.3332,0.3386,0.3509,0.3361,0.3361,0.3384,0.3641,0.3444,0.344,0.3549,0.3553,0.3556,0.3588,0,0.2747,0.2762,0.2774,0.2809,0.2816,0.2877,0.2914,0.2991,0.3072,0.3157,0.3245,0.333,0.3332,0.3386,0.3455,0.3515,0.3556,0.3497,0.3529,0.3528,0.3361,0.3454,0.3185,0.3177,0.3602,0.3604,0.3606,0,0.275,0.2756,0.2768,0.2786,0.2793,0.2841,0.2941,0.2995,0.3144,0.32,0.3339,0.3405,0.354,0.3515,0.3661,0.3632,0.3641,0.3661,0.3664,0.3432,0.3359,0.3154,0.3187,0.363,0.3628,0.3626,0.3625,0,0.2716,0.2742,0.2752,0.2762,0.2808,0.2842,0.2896,0.3014,0.3081,0.3274,0.3357,0.351,0.3612,0.3684,0.3728,0.3718,0.3847,0.3834,0.3655,0.3638,0.3384,0.3338,0.3914,0.3914,0.3914,0.3914,0.3914,0,0.2695,0.2695,0.2751,0.275,0.2796,0.2822,0.2909,0.3005,0.3141,0.3238,0.3395,0.3495,0.3669,0.3756,0.3768,0.3748,0.3884,0.367,0.365,0.3422,0.3381,0.3748,0.3728,0.3915,0.3915,0.3915,0.3915,0,0.2638,0.2671,0.2684,0.2734,0.278,0.2814,0.2934,0.2993,0.3132,0.3287,0.3353,0.3541,0.3638,0.3736,0.3845,0.378,0.3781,0.3725,0.3405,0.3344,0.3506,0.3493,0.3542,0.3536,0.353,0.3526,0.3522,0,0.2603,0.2614,0.2682,0.2718,0.2754,0.2832,0.2878,0.3006,0.3098,0.3282,0.3352,0.3494,0.3538,0.3601,0.3558,0.3525,0.3654,0.3218,0.3138,0.35,0.3477,0.3472,0.3468,0.2865,0.2857,0.2849,0.2844,0,0.2543,0.2579,0.2581,0.2667,0.2735,0.2787,0.2889,0.2942,0.3079,0.3168,0.3237,0.326,0.3335,0.3174,0.3143,0.3089,0.3204,0.3061,0.3584,0.2978,0.2859,0.2836,0.2855,0.2779,0.2786,0.279,0.2794,0.2797,0.2495,0.2494,0.253,0.2589,0.267,0.2693,0.2682,0.2762,0.2804,0.2861,0.2998,0.2934,0.2958,0.2749,0.2637,0.2565,0.2782,0.2652,0.2677,0.2709,0.2602,0.2478,0.2304,0.2307,0.231,0.2313,0.2315,0,0.244,0.2447,0.2469,0.2485,0.2502,0.2606,0.2649,0.2576,0.2528,0.2605,0.2607,0.2348,0.2208,0.2251,0.2021,0.1959,0.1988,0.1882,0.1917,0.1981,0.2038,0.1899,0.1414,0.1411,0.1408,0.1406,0,0,0.2414,0.2387,0.2364,0.232,0.2357,0.2294,0.2284,0.2189,0.2196,0.2067,0.2021,0.2158,0.2197,0.1808,0.1718,0.1535,0.1765,0.1472,0.2197,0.2307,0.2361,0.2476,0.2332,0,0,0,0,0]},{"header":{"parameterUnit":"m.s-1","parameterCategory":2,"la1":30.2991,"la2":30.254,"lo1":-89.0895,"lo2":-89.0444,"dy":0.0017,"dx":0.0017,"nx":28,"ny":28,"refTime":"2023-07-29T21:00:00:Z","depth":"2","parameterNumber":3,"parameterNumberName":"V-component_of_CURRENTS"},"data":[0,0,0,0,0,0,0,0,0,0,0,0,0,0,0,0,0,0,0,0,0,0,0,0,0,0,0,0,0,0,0,0,0,0,0,0,0,0,0,0,0,0,0,0,0,0,0,0,0,0,0,0,0,0,0,0,0,0,0.0106,0.0106,0,0.0083,0.0083,0.0083,0.0066,0.0066,0.0066,0.0065,0.0027,0.0027,0.0026,0,0,0,0,0,0,0,0,0,0,0,0,0,0.011,0.011,0.0106,0.0106,0.0106,0.0083,0.0083,0.0083,0.0066,0.0066,0.0065,0.0065,0.0028,0.0027,0.0026,0,0,0,0,0,0,0,0,0,0,0,0,0,0.01,0.011,0.0107,0.0094,0.0093,0.0083,0.0083,0.0083,0.0066,0.0066,0.0065,0.0065,0.0028,0.0027,0.0026,0.0023,0,0,0.0022,0.0021,0,0,0,0,0,0,0,0,0.0101,0.01,0.0096,0.0095,0.0094,0.0077,0.007,0.0062,0.0066,0.0077,0.0065,0.0065,0.0042,0.004,0.0037,0.0022,0.002,0.0022,0.0021,0.002,0.002,0,0,0,0,0,0,0,0.0102,0.0101,0.0098,0.0096,0.0094,0.0081,0.008,0.0069,0.0062,0.0076,0.0074,0.0071,0.0042,0.0038,0.0036,0.0019,0.0022,0.0021,0.002,0.0019,0.0016,0.0016,0,0,0,0,0,0,0.0105,0.0102,0.0098,0.0097,0.0096,0.0081,0.008,0.0083,0.0062,0.0058,0.0071,0.007,0.0041,0.0038,0.0035,0.0051,0.002,0.0019,0.0018,0.0015,0.0016,0.0016,0,0,0,0,0,0,0.0106,0.0106,0.0099,0.0098,0.0096,0.0082,0.0085,0.0082,0.008,0.0059,0.0055,0.0072,0.004,0.0036,0.0036,0.0049,0.0019,0.0017,0.0014,0.0015,0.0016,0.0072,0,0,0,0,0,0,0.0106,0.0106,0.011,0.0099,0.0096,0.0099,0.0085,0.0082,0.0078,0.0077,0.0058,0.0054,0.004,0.0038,0.0035,0.0047,0.0016,0.0013,0.0015,0.0016,0.0069,0.0075,0.0079,0,0,0,0,0,0.0106,0.0118,0.0111,0.011,0.0103,0.01,0.0098,0.0086,0.0079,0.0082,0.0074,0.0055,0.0043,0.0038,0.0034,0.0046,0.0013,0.0014,0.0016,0.0067,0.0073,0.0079,0,0,0,0,0,0,0.0122,0.0117,0.0109,0.0118,0.011,0.0097,0.0101,0.0089,0.0085,0.0086,0.0064,0.006,0.0062,0.0047,0.0042,0.0048,0.0024,0.0025,0.0065,0.0071,0.0076,0.0105,0.0015,0,0,0,0,0,0.0127,0.0135,0.0123,0.013,0.0129,0.0115,0.0112,0.0104,0.0097,0.0094,0.0081,0.007,0.0065,0.0063,0.0052,0.0058,0.0049,0.0062,0.0067,0.0072,0.0093,0.0104,0.0112,0.0021,0.0021,0.0021,0,0,0.0132,0.0132,0.0135,0.0133,0.0129,0.0139,0.0113,0.0115,0.0125,0.0091,0.0103,0.0085,0.0069,0.0077,0.0076,0.0067,0.0087,0.0074,0.0078,0.0097,0.0106,0.0115,0.0124,0.0022,0.0022,0.0022,0,0,0.0155,0.0151,0.0167,0.0167,0.0163,0.0157,0.0159,0.0148,0.0147,0.0151,0.0132,0.0131,0.0115,0.0115,0.0112,0.0139,0.0111,0.0125,0.0179,0.0189,0.0197,0.0204,0.018,0.0185,0.0132,0.0132,0.0132,0,0.0162,0.0184,0.017,0.0188,0.0198,0.0169,0.0193,0.0186,0.0176,0.019,0.0163,0.0165,0.014,0.0168,0.0173,0.0153,0.0142,0.0157,0.0197,0.0204,0.0211,0.0184,0.0189,0.0135,0.0134,0.0134,0.0134,0,0.02,0.0216,0.0228,0.0245,0.0251,0.0266,0.0258,0.0263,0.0253,0.0252,0.0269,0.024,0.0251,0.023,0.0208,0.0242,0.0213,0.02,0.0185,0.0223,0.0192,0.0196,0.0139,0.0138,0.0137,0.0136,0,0,0.022,0.025,0.0255,0.0282,0.0287,0.0302,0.0321,0.0343,0.0381,0.0351,0.04,0.037,0.0359,0.0355,0.0324,0.0322,0.0334,0.0283,0.0282,0.0265,0.0335,0.028,0.0278,0.033,0.0331,0.0332,0.0286,0,0.0256,0.0309,0.0314,0.0368,0.0395,0.039,0.0421,0.0435,0.0443,0.0478,0.045,0.0479,0.0406,0.0421,0.0406,0.0367,0.035,0.0347,0.0296,0.0295,0.0247,0.0283,0.0294,0.0252,0.0289,0.029,0.029,0,0.0292,0.0328,0.0387,0.0449,0.0464,0.0491,0.0554,0.0584,0.0615,0.0624,0.0638,0.0618,0.0618,0.0549,0.0498,0.05,0.0425,0.0375,0.0372,0.0312,0.0248,0.0224,0.0257,0.0296,0.0295,0.0295,0.0294,0,0.0325,0.0383,0.044,0.0456,0.0513,0.0549,0.0588,0.0631,0.0694,0.0732,0.0782,0.0756,0.0775,0.0687,0.0562,0.0545,0.049,0.0454,0.0327,0.032,0.0317,0.0308,0.0416,0.0416,0.0416,0.0416,0.0417,0,0.0366,0.0412,0.0462,0.0495,0.0584,0.0606,0.0711,0.0741,0.0821,0.0925,0.0874,0.0932,0.0815,0.0761,0.0619,0.0484,0.0533,0.035,0.0319,0.0331,0.0324,0.0357,0.0351,0.0415,0.0415,0.0415,0.0416,0,0.0392,0.0421,0.0493,0.0566,0.0601,0.0668,0.0801,0.0889,0.0942,0.1078,0.1104,0.1094,0.1022,0.0865,0.0728,0.0579,0.0437,0.0366,0.0366,0.0336,0.0241,0.0238,0.0243,0.0241,0.0239,0.0238,0.0237,0,0.0411,0.0449,0.0547,0.0614,0.0654,0.0762,0.0854,0.094,0.1051,0.1176,0.1255,0.1224,0.1189,0.094,0.0697,0.0444,0.0418,0.028,0.0249,0.0262,0.0231,0.023,0.023,0.0252,0.0251,0.025,0.025,0,0.0454,0.0484,0.0554,0.0683,0.0786,0.0913,0.1052,0.1152,0.128,0.1366,0.1459,0.143,0.1215,0.0961,0.0619,0.0449,0.0321,0.0255,0.0305,0.0288,0.0265,0.0236,0.0236,0.0243,0.0243,0.0244,0.0244,0.0245,0.0494,0.0546,0.0641,0.077,0.0899,0.1056,0.1163,0.1301,0.1449,0.1572,0.1565,0.1507,0.126,0.0803,0.0529,0.0257,0.0272,0.0159,0.0164,0.017,0.0173,0.0149,0.0103,0.0103,0.0102,0.0102,0.0102,0,0.0546,0.0616,0.0732,0.0887,0.1038,0.1094,0.1299,0.1387,0.1533,0.1606,0.1632,0.1367,0.1089,0.081,0.0396,0.0138,0.0135,0.0062,0.0118,0.0126,0.0133,0.0137,0.0055,0.0054,0.0054,0.0053,0,0,0.058,0.0685,0.0741,0.0977,0.1101,0.1277,0.1388,0.1484,0.1561,0.1576,0.1541,0.148,0.1157,0.0849,0.052,0.0287,0.0264,0.024,0.0302,0.0415,0.0425,0.021,0.0227,0,0,0,0,0]}],[{"header":{"parameterUnit":"m.s-1","parameterCategory":2,"la1":30.2991,"la2":30.254,"lo1":-89.0895,"lo2":-89.0444,"dy":0.0017,"dx":0.0017,"nx":28,"ny":28,"refTime":"2023-07-29T21:00:00:Z","depth":"4","parameterNumber":2,"parameterNumberName":"U-component_of_CURRENTS"},"data":[0,0,0,0,0,0,0,0,0,0,0,0,0,0,0,0,0,0,0,0,0,0,0,0,0,0,0,0,0,0,0,0,0,0,0,0,0,0,0,0,0,0,0,0,0,0,0,0,0,0,0,0,0,0,0,0,0,0,0.1388,0.1388,0,0.1401,0.1401,0.1401,0.1437,0.1438,0.1439,0.1439,0.1483,0.1484,0.1484,0,0,0,0,0,0,0,0,0,0,0,0,0,0.1372,0.1372,0.1388,0.1388,0.1389,0.1401,0.1401,0.1401,0.1437,0.1438,0.1439,0.144,0.1483,0.1483,0.1484,0,0,0,0,0,0,0,0,0,0,0,0,0,0.138,0.1372,0.1388,0.1409,0.1411,0.1401,0.1401,0.1401,0.1436,0.1438,0.1439,0.144,0.1483,0.1483,0.1484,0.1459,0,0,0.1485,0.1485,0,0,0,0,0,0,0,0,0.1379,0.138,0.1406,0.1408,0.141,0.142,0.1412,0.1423,0.1436,0.1425,0.1439,0.1441,0.1465,0.1467,0.1463,0.1461,0.1463,0.1485,0.1486,0.1486,0.1486,0,0,0,0,0,0,0,0.1379,0.138,0.1391,0.1406,0.1409,0.1411,0.1414,0.1414,0.1436,0.1426,0.1429,0.1433,0.1467,0.1463,0.1465,0.1463,0.1485,0.1486,0.1486,0.1486,0.1547,0.1548,0,0,0,0,0,0,0.138,0.1379,0.1391,0.1392,0.14,0.141,0.1413,0.1414,0.1436,0.144,0.1432,0.1435,0.1461,0.1464,0.1467,0.1522,0.1486,0.1486,0.1486,0.1545,0.1547,0.1549,0,0,0,0,0,0,0.138,0.1381,0.139,0.1388,0.1389,0.1409,0.141,0.1414,0.1447,0.144,0.1446,0.1466,0.1463,0.1466,0.1494,0.1521,0.1486,0.1487,0.1544,0.1546,0.1548,0.158,0,0,0,0,0,0,0.1379,0.1381,0.1396,0.1388,0.139,0.141,0.1409,0.1413,0.1445,0.145,0.147,0.1473,0.1464,0.1493,0.1494,0.1521,0.1487,0.1542,0.1545,0.1547,0.1577,0.1583,0.1588,0,0,0,0,0,0.1379,0.1386,0.1396,0.1399,0.1405,0.1411,0.1413,0.143,0.1446,0.1464,0.1476,0.1475,0.151,0.1494,0.1495,0.1523,0.1541,0.1544,0.1547,0.1575,0.1582,0.1588,0,0,0,0,0,0,0.1386,0.139,0.1401,0.1411,0.1425,0.1419,0.1439,0.1449,0.1471,0.1487,0.1482,0.1486,0.1528,0.1519,0.1501,0.155,0.1529,0.1533,0.155,0.1557,0.1562,0.1595,0.1487,0,0,0,0,0,0.1394,0.1406,0.141,0.1424,0.1434,0.1444,0.1456,0.1468,0.1478,0.1491,0.15,0.1516,0.1533,0.1541,0.1555,0.1569,0.1596,0.1593,0.1598,0.1602,0.1632,0.1697,0.1711,0.1558,0.1558,0.1558,0,0,0.1396,0.1406,0.1411,0.1428,0.1441,0.1445,0.1456,0.1483,0.15,0.1491,0.1527,0.154,0.1545,0.1569,0.1587,0.1568,0.1655,0.1606,0.161,0.1638,0.1702,0.1717,0.173,0.1561,0.156,0.156,0,0,0.1397,0.1424,0.143,0.1442,0.1471,0.1474,0.1491,0.1505,0.1537,0.1564,0.1568,0.1601,0.1616,0.1623,0.1628,0.1671,0.1689,0.1679,0.1722,0.1784,0.1797,0.181,0.1841,0.1856,0.1671,0.1671,0.1671,0,0.1408,0.141,0.1435,0.1442,0.1457,0.149,0.1498,0.1524,0.1547,0.1587,0.1589,0.1647,0.1645,0.1682,0.1698,0.1685,0.172,0.1692,0.1792,0.1805,0.1817,0.1846,0.1862,0.1673,0.1673,0.1673,0.1673,0,0.1399,0.1412,0.1422,0.144,0.146,0.148,0.1512,0.1552,0.1596,0.1629,0.1708,0.171,0.175,0.1747,0.1736,0.1815,0.1811,0.1798,0.1776,0.1834,0.1861,0.1877,0.1676,0.1675,0.1675,0.1674,0,0,0.14,0.1412,0.1422,0.1429,0.1468,0.1479,0.1529,0.1589,0.1648,0.1695,0.1771,0.1802,0.1839,0.185,0.1841,0.1886,0.1979,0.1886,0.1888,0.1916,0.2115,0.1923,0.1921,0.1994,0.1997,0.2,0.2091,0,0.1395,0.1397,0.1416,0.143,0.1431,0.1486,0.153,0.1597,0.1673,0.1755,0.1813,0.1889,0.1867,0.1904,0.1946,0.1978,0.2029,0.1956,0.2056,0.2058,0.1881,0.1936,0.2011,0.2103,0.2106,0.2109,0.2111,0,0.1381,0.1386,0.1393,0.1428,0.1442,0.1471,0.1574,0.1618,0.1746,0.182,0.1914,0.1973,0.2051,0.2031,0.2132,0.2094,0.2127,0.2143,0.2147,0.1976,0.1897,0.2038,0.214,0.2138,0.2136,0.2134,0.2132,0,0.135,0.1374,0.1384,0.1393,0.1435,0.1487,0.1538,0.1656,0.1721,0.1887,0.197,0.2068,0.2137,0.2201,0.2233,0.2214,0.2337,0.2303,0.2163,0.2149,0.2281,0.2267,0.241,0.2409,0.2409,0.2409,0.2409,0,0.1317,0.1324,0.1382,0.1379,0.1427,0.1483,0.1578,0.165,0.1782,0.1869,0.2012,0.2087,0.2198,0.2268,0.2284,0.2256,0.2382,0.2192,0.2169,0.2287,0.2273,0.229,0.2275,0.2412,0.2412,0.2411,0.241,0,0.1249,0.1285,0.1289,0.1361,0.14,0.1438,0.1573,0.1642,0.179,0.1907,0.1973,0.2135,0.2221,0.2287,0.238,0.23,0.2306,0.2274,0.2393,0.2372,0.2067,0.2053,0.2127,0.2122,0.2117,0.2113,0.2109,0,0.1198,0.1194,0.1267,0.1292,0.1331,0.1418,0.1486,0.1629,0.1696,0.1908,0.1943,0.2103,0.219,0.2172,0.224,0.2249,0.2223,0.2215,0.2145,0.2073,0.2044,0.2037,0.203,0.2101,0.21,0.2099,0.2097,0,0.11,0.1146,0.1165,0.1211,0.1281,0.1341,0.1447,0.1487,0.1655,0.1805,0.1892,0.1954,0.2034,0.2069,0.209,0.2092,0.2206,0.2163,0.2172,0.2107,0.2042,0.2017,0.2015,0.208,0.2083,0.2084,0.2085,0,0.1052,0.1041,0.1089,0.1121,0.1194,0.1237,0.1312,0.1401,0.1482,0.1703,0.1721,0.1888,0.2016,0.1989,0.2004,0.1984,0.195,0.1885,0.1908,0.1928,0.1812,0.1696,0.1627,0,0,0,0,0,0.0994,0.0981,0.0996,0.1027,0.1095,0.114,0.1266,0.135,0.1519,0.1532,0.1619,0.1689,0.1737,0.1809,0.1745,0.1886,0.194,0.1799,0.1874,0.1986,0.2005,0.1881,0,0,0,0,0,0,0.0961,0.0974,0.0961,0.0948,0.0957,0.1026,0.1105,0.1224,0.1234,0.141,0.1444,0.1567,0.1631,0.1751,0.1708,0.1722,0.1728,0.1881,0.1876,0.1974,0.1992,0.2008,0.1887,0,0,0,0,0]},{"header":{"parameterUnit":"m.s-1","parameterCategory":2,"la1":30.2991,"la2":30.254,"lo1":-89.0895,"lo2":-89.0444,"dy":0.0017,"dx":0.0017,"nx":28,"ny":28,"refTime":"2023-07-29T21:00:00:Z","depth":"4","parameterNumber":3,"parameterNumberName":"V-component_of_CURRENTS"},"data":[0,0,0,0,0,0,0,0,0,0,0,0,0,0,0,0,0,0,0,0,0,0,0,0,0,0,0,0,0,0,0,0,0,0,0,0,0,0,0,0,0,0,0,0,0,0,0,0,0,0,0,0,0,0,0,0,0,0,0.0105,0.0105,0,0.0098,0.0098,0.0098,0.0089,0.0089,0.0089,0.0088,0.0061,0.006,0.006,0,0,0,0,0,0,0,0,0,0,0,0,0,0.0099,0.0099,0.0105,0.0105,0.0105,0.0098,0.0098,0.0098,0.0089,0.0089,0.0088,0.0088,0.0061,0.006,0.0059,0,0,0,0,0,0,0,0,0,0,0,0,0,0.0099,0.0099,0.0105,0.0098,0.0098,0.0098,0.0098,0.0098,0.0089,0.0089,0.0088,0.0088,0.0061,0.006,0.0059,0.0062,0,0,0.0057,0.0057,0,0,0,0,0,0,0,0,0.0099,0.0099,0.01,0.0099,0.0098,0.0093,0.0085,0.0085,0.0089,0.0094,0.0088,0.0088,0.0069,0.0067,0.0069,0.0061,0.006,0.0057,0.0057,0.0056,0.0056,0,0,0,0,0,0,0,0.0099,0.0099,0.0103,0.0099,0.0098,0.0091,0.0091,0.0085,0.0084,0.0093,0.0092,0.009,0.0068,0.007,0.0068,0.0059,0.0057,0.0056,0.0056,0.0056,0.0056,0.0057,0,0,0,0,0,0,0.0098,0.0099,0.0104,0.0103,0.0096,0.0092,0.0092,0.0096,0.0085,0.0082,0.009,0.0089,0.0071,0.0069,0.0067,0.008,0.0056,0.0056,0.0055,0.0056,0.0056,0.0057,0,0,0,0,0,0,0.0098,0.0099,0.0104,0.01,0.01,0.0092,0.0097,0.0096,0.0098,0.0082,0.008,0.0093,0.0071,0.0068,0.007,0.0078,0.0055,0.0055,0.0055,0.0056,0.0057,0.0098,0,0,0,0,0,0,0.0098,0.0099,0.0105,0.01,0.01,0.0108,0.0097,0.0096,0.0096,0.0095,0.0084,0.0081,0.007,0.0071,0.0069,0.0076,0.0054,0.0055,0.0056,0.0056,0.0096,0.01,0.0104,0,0,0,0,0,0.0098,0.0108,0.0106,0.0106,0.0108,0.0109,0.0108,0.0102,0.0097,0.0102,0.0097,0.0081,0.0075,0.0071,0.0068,0.0076,0.0054,0.0055,0.0056,0.0095,0.0099,0.0104,0,0,0,0,0,0,0.0108,0.0108,0.0105,0.0115,0.0113,0.0107,0.0112,0.0105,0.0106,0.0106,0.009,0.0087,0.0088,0.0078,0.0075,0.0078,0.0061,0.0061,0.0091,0.0095,0.0099,0.0107,0.0053,0,0,0,0,0,0.0113,0.0121,0.0117,0.0124,0.0127,0.012,0.012,0.0116,0.0113,0.0113,0.0104,0.0097,0.0091,0.0091,0.0082,0.0089,0.0062,0.0091,0.0095,0.0098,0.0103,0.0064,0.0064,0.006,0.006,0.006,0,0,0.0118,0.0119,0.0123,0.0127,0.0127,0.0139,0.012,0.0125,0.0136,0.011,0.0124,0.0108,0.0095,0.0101,0.01,0.0094,0.0086,0.0099,0.0102,0.0105,0.0065,0.0065,0.0066,0.0061,0.0061,0.0061,0,0,0.0133,0.0135,0.0149,0.0153,0.0155,0.0153,0.0156,0.0153,0.0155,0.0164,0.0146,0.0137,0.0134,0.0125,0.012,0.0139,0.0103,0.0136,0.0166,0.0128,0.0128,0.0128,0.0097,0.0094,0.0142,0.0142,0.0142,0,0.014,0.0159,0.0152,0.0169,0.0182,0.0163,0.0187,0.0185,0.0182,0.0187,0.0175,0.0159,0.0146,0.0147,0.0157,0.0148,0.0122,0.0151,0.0133,0.0132,0.013,0.0099,0.0094,0.0144,0.0144,0.0143,0.0143,0,0.0168,0.0186,0.0196,0.0215,0.0227,0.0242,0.0243,0.0246,0.0242,0.0237,0.0233,0.0209,0.0199,0.0191,0.0184,0.0173,0.0156,0.0138,0.0121,0.0133,0.0099,0.0094,0.0147,0.0146,0.0146,0.0145,0,0,0.0178,0.0211,0.0216,0.0242,0.0257,0.0272,0.029,0.0303,0.0315,0.0295,0.0302,0.0286,0.026,0.0253,0.0228,0.0199,0.0171,0.0173,0.017,0.0143,0.009,0.0085,0.0078,0.0146,0.0145,0.0144,0.0071,0,0.0205,0.0251,0.0262,0.0312,0.034,0.0341,0.0363,0.0369,0.0365,0.0362,0.0321,0.0321,0.0288,0.0284,0.0247,0.0188,0.0158,0.0193,0.0083,0.008,0.0073,0.0072,0.0142,0.0067,0.0065,0.0064,0.0064,0,0.023,0.0261,0.0318,0.0372,0.0386,0.0412,0.0448,0.0468,0.0452,0.0447,0.0421,0.0385,0.0344,0.031,0.0209,0.0231,0.0171,0.0119,0.0114,0.0092,0.0064,0.005,0.0053,0.0054,0.0055,0.0056,0.0056,0,0.0245,0.0302,0.0355,0.0374,0.0425,0.0454,0.0483,0.0493,0.052,0.0502,0.0507,0.0437,0.041,0.0315,0.0208,0.021,0.0082,0.007,0.0006,0.0005,0.0013,0.0014,-0.0001,-0.0001,-0.0001,-0.0,-0.0,0,0.0271,0.0312,0.0368,0.0399,0.0466,0.0493,0.0555,0.0565,0.058,0.0612,0.0557,0.0544,0.041,0.0319,0.0215,0.009,0.0084,0.0011,-0.0015,0.0033,0.0037,0.0009,0.0011,-0.0003,-0.0003,-0.0002,-0.0002,0,0.0277,0.0313,0.0378,0.0448,0.0476,0.0527,0.0612,0.0648,0.0663,0.0695,0.0695,0.062,0.0505,0.0361,0.0199,0.0114,-0.0012,-0.0054,0.001,-0.0013,-0.0064,-0.0059,-0.0124,-0.0125,-0.0126,-0.0126,-0.0127,0,0.0284,0.0317,0.0413,0.0464,0.0503,0.0583,0.0636,0.0681,0.0718,0.0739,0.0743,0.0656,0.0586,0.0351,0.0195,-0.0012,-0.0038,-0.0097,-0.0079,-0.0058,-0.0077,-0.0071,-0.0065,-0.0128,-0.0128,-0.0128,-0.0128,0,0.0296,0.0331,0.0389,0.049,0.0565,0.0648,0.0724,0.0754,0.0804,0.0816,0.0788,0.0681,0.0546,0.0354,0.0191,0.0042,-0.0058,-0.0105,-0.0104,-0.0087,-0.0063,-0.008,-0.0074,-0.0131,-0.0131,-0.013,-0.013,0,0.0306,0.0342,0.0422,0.0518,0.061,0.0691,0.0733,0.0779,0.0816,0.0834,0.0815,0.0687,0.0606,0.0382,0.0226,0.008,0.0052,0.0017,0.0011,0.0011,0.0069,0.0121,0.0088,0,0,0,0,0,0.0317,0.0365,0.0445,0.055,0.0642,0.0698,0.0782,0.0813,0.0852,0.0841,0.0836,0.0714,0.0505,0.0403,0.0256,0.0202,0.0014,0.0026,-0.0032,-0.0144,-0.0141,-0.0097,0,0,0,0,0,0,0.0328,0.0396,0.0439,0.0562,0.0635,0.0732,0.0788,0.0817,0.0806,0.0822,0.0701,0.0677,0.0453,0.0583,0.025,0.0207,0.0152,-0.007,-0.0072,-0.0146,-0.0143,-0.0141,-0.0095,0,0,0,0,0]}]]